Flight Track Log - Related Links

Times and Time Zones

All times are in EDT time to prevent confusion due to time zone crossing. See the N275MC flight status page for this flight to view local times or setup timezone preferences in your user account.

Time Position Orientation Groundspeed Altitude Reporting Facility
EDT Latitude Longitude Course Direction KTS MPH feet Rate Location/Type
Sun 01:49:44 PM 41.3381 -72.0728 256° West 78 90 600  Level Boston Center
Sun 01:51:09 PM 41.3294 -72.1197 256° West 80 92 1,800 791 Climbing Boston Center
Sun 01:51:15 PM 41.3294 -72.1242 270° West 86 99 1,800 393 Level Boston Center
Sun 01:52:10 PM 41.3197 -72.1514 245° Southwest 92 106 2,200 492 Climbing Boston Center
Sun 01:52:16 PM 41.3181 -72.1572 249° West 95 109 2,300 581 Climbing Boston Center
Sun 01:53:12 PM 41.3036 -72.1814 231° Southwest 92 106 2,800 466 Climbing Boston Center
Sun 01:54:12 PM 41.2894 -72.2097 236° Southwest 91 105 3,200 393 Climbing Boston Center
Sun 01:54:13 PM 41.2886 -72.2083 129° Southeast 90 104 3,200 600 Level Boston Center
Sun 01:55:12 PM 41.2767 -72.2394 243° Southwest 90 104 3,800 590 Climbing Boston Center
Sun 01:55:14 PM 41.2767 -72.2383 90° East 91 105 3,800 571 Level Boston Center
Sun 01:56:15 PM 41.2681 -72.2703 250° West 91 105 4,400 390 Climbing Boston Center
Sun 01:57:17 PM 41.2600 -72.3044 253° West 95 109 4,600 98 Climbing Boston Center
Sun 01:58:18 PM 41.2514 -72.3417 253° West 103 119 4,600  Level Boston Center
Sun 01:59:20 PM 41.2458 -72.3803 259° West 106 122 4,600 -49 Level Boston Center
Sun 02:00:21 PM 41.2389 -72.4167 256° West 105 121 4,500 -49 Descending Boston Center
Sun 02:01:22 PM 41.2347 -72.4525 261° West 102 117 4,500 -49 Level Boston Center
Sun 02:02:24 PM 41.2303 -72.4942 262° West 98 113 4,400 -49 Descending Boston Center
Sun 02:03:25 PM 41.2256 -72.5278 259° West 96 110 4,400  Level Boston Center
Sun 02:04:26 PM 41.2228 -72.5608 264° West 93 107 4,400  Level Boston Center
Sun 02:05:28 PM 41.2239 -72.5947 273° West 92 106 4,400  Level Boston Center
Sun 02:06:29 PM 41.2247 -72.6292 272° West 93 107 4,400 49 Level Boston Center
Sun 02:07:31 PM 41.2278 -72.6647 277° West 95 109 4,500 49 Climbing Boston Center
Sun 02:08:32 PM 41.2347 -72.7019 284° West 99 114 4,500 -49 Level Boston Center
Sun 02:09:34 PM 41.2400 -72.7425 280° West 106 122 4,400 -49 Descending Boston Center
Sun 02:10:35 PM 41.2469 -72.7856 282° West 103 119 4,400 49 Level Boston Center
Sun 02:11:36 PM 41.2511 -72.8214 279° West 100 115 4,500 49 Climbing Boston Center
Sun 02:12:37 PM 41.2397 -72.8572 247° West 104 120 4,500  Level Boston Center
Sun 02:13:07 PM 41.2333 -72.8833 252° West 106 122 4,500  Level New York TRACON
Sun 02:14:07 PM 41.2167 -72.9167 236° Southwest 108 124 4,500 -50 Level New York TRACON
Sun 02:15:07 PM 41.2000 -72.9500 236° Southwest 118 136 4,400 -48 Descending New York TRACON
Sun 02:16:13 PM 41.1833 -72.9833 236° Southwest 110 127 4,400  Level New York TRACON
Sun 02:17:13 PM 41.1833 -73.0333 270° West 107 123 4,400  Level New York TRACON
Sun 02:18:13 PM 41.1667 -73.0667 236° Southwest 107 123 4,400 50 Level New York TRACON
Sun 02:19:13 PM 41.1667 -73.1000 270° West 106 122 4,500 50 Climbing New York TRACON
Sun 02:20:13 PM 41.1667 -73.1333 270° West 107 123 4,500  Level New York TRACON
Sun 02:21:13 PM 41.1833 -73.1667 304° West 106 122 4,500  Level New York TRACON
Sun 02:22:13 PM 41.2000 -73.2000 304° West 113 130 4,500 -48 Level New York TRACON
Sun 02:23:19 PM 41.2333 -73.2333 323° Northwest 103 119 4,400 -50 Descending New York TRACON
Sun 02:24:13 PM 41.2500 -73.2500 323° Northwest 102 117 4,400 -191 Level New York TRACON
Sun 02:25:56 PM 41.2739 -73.2939 306° West 98 113 3,900 -366 Descending Boston Center
Sun 02:26:57 PM 41.2911 -73.3300 302° West 97 112 3,400 -341 Descending Boston Center
Sun 02:27:59 PM 41.2947 -73.3644 278° West 94 108 3,200 -195 Descending Boston Center
Sun 02:29:00 PM 41.3111 -73.3911 309° West 92 106 3,000 -393 Descending Boston Center
Sun 02:30:01 PM 41.3228 -73.4231 296° West 94 108 2,400 -732 Descending Boston Center
Sun 02:31:03 PM 41.3350 -73.4558 296° West 96 110 1,500 -732 Descending Boston Center
Sun 02:32:04 PM 41.3575 -73.4736 329° Northwest 92 106 900 -590 Descending Boston Center

Login

Don't have an account? Register now (free) for customized features, flight alerts, and more!